This demonstration page uses our WeatherBlox Daily Observations layout. Learn more.

Left ArrowRight Arrow

34.16533, -84.80231

Hourly Observations for August 16, 2020

Temp ( °F °C ) Dew Point ( °F °C ) Humidity (%) Winds ( mph kmh ) Pressure ( in mb ) Visibility ( mi km ) Precip ( " mm )
12:53 am 00:53 Clear 74 23.3 71 21.7 91 91 Calm 29.90 1013 8 13 0.00 0.00
1:53 am 01:53 Clear 74 23.3 71 21.7 91 91 Calm 29.90 1013 8 13 0.00 0.00
2:53 am 02:53 Clear 73 22.8 70 21.1 90 90 Calm 29.90 1012 7 11 0.00 0.00
3:53 am 03:53 Clear 72 22.2 70 21.1 94 94 Calm 29.89 1012 7 11 0.00 0.00
4:53 am 04:53 Clear with Mist and Fog 71 21.7 69 20.6 94 94 Calm 29.89 1012 5 8 0.00 0.00
5:53 am 05:53 Clear with Mist and Fog 71 21.7 68 20 90 90 Calm 29.90 1012 5 8 0.00 0.00
6:53 am 06:53 Clear with Mist and Fog 70 21.1 68 20 93 93 Calm 29.91 1013 4 6 0.00 0.00
7:53 am 07:53 Sunny with Mist and Fog 72 22.2 69 20.6 91 91 Calm 29.93 1014 5 8 0.00 0.00
8:53 am 08:53 Sunny 75 23.9 70 21.1 84 84 Calm 29.95 1014 9 14 0.00 0.00
9:53 am 09:53 Partly Cloudy 77 25 71 21.7 82 82 Calm 29.96 1015 10 16 0.00 0.00
10:53 am 10:53 Sunny 83 28.3 72 22.2 70 70 NE 3 6 29.95 1014 10 16 0.00 0.00
11:53 am 11:53 Mostly Sunny 86 30 69 20.6 57 57 N 7 11 29.95 1014 10 16 0.00 0.00
12:53 pm 12:53 Sunny 89 31.7 70 21.1 53 53 N 9 15 29.94 1014 10 16 0.00 0.00
1:53 pm 13:53 Sunny 90 32.2 67 19.4 47 47 N 9 15 29.93 1014 10 16 0.00 0.00
2:53 pm 14:53 Sunny 91 32.8 66 18.9 44 44 N 10 17 29.92 1013 10 16 0.00 0.00
3:53 pm 15:53 Sunny 90 32.2 68 20 48 48 VRB 7 11 29.91 1013 10 16 0.00 0.00
4:53 pm 16:53 Sunny 91 32.8 68 20 47 47 Calm 29.90 1013 10 16 0.00 0.00
5:53 pm 17:53 Mostly Sunny 91 32.8 68 20 47 47 N 7 11 29.90 1013 10 16 0.00 0.00
6:53 pm 18:53 Sunny 89 31.7 67 19.4 48 48 NNW 5 7 29.89 1012 10 16 0.00 0.00
7:53 pm 19:53 Sunny 83 28.3 72 22.2 70 70 Calm 29.88 1012 10 16 0.00 0.00
8:53 pm 20:53 Clear 77 25 71 21.7 82 82 Calm 29.91 1013 10 16 0.00 0.00
9:53 pm 21:53 Clear 75 23.9 71 21.7 88 88 Calm 29.93 1014 10 16 0.00 0.00
10:53 pm 22:53 Clear 74 23.3 71 21.7 91 91 Calm 29.93 1014 10 16 0.00 0.00
11:53 pm 23:53 Clear 74 23.3 70 21.1 88 88 Calm 29.94 1014 9 14 0.00 0.00

Powered by AerisWeather